Torna al catalogo

MKA-FKI 1

AttivoScienzaSSO
NORAD 38711·PAYLOAD·🇷🇺 Russia

Lanciato Jul 22, 2012 da Baikonur Cosmodrome

Loading…

Prossimi Passaggi (prossime 24 ore)

TLE

AggiornatoSource: Space-Track

Epoca: Sep 14, 2026, 06:18 UTC

1 38711U 12039E   26257.26277464  .00000106  00000-0  64667-4 0  9995
2 38711  98.9812  16.3590 0010407 271.4913  88.5074 14.25452586735539

Traccia MKA-FKI 1 in tempo reale con AllMySat

Download on the App Store